Regional Weather Roundup
Issued by NWS Charleston, WV

Home | Current Version | Previous Version | Graphics & Text | Print | Product List | Glossary On
Versions: 1 2 3 4 5 6 7 8 9 10 11 12 13 14 15 16 17 18 19 20 21 22 23 24 25 26 27 28 29 30 31 32 33 34 35 36 37 38 39 40 41 42 43 44 45 46 47 48 49 50
000
ASUS41 KRLX 261210
RWRRLX
West Virginia Regional Weather Roundup
National Weather Service Charleston WV
800 AM EDT FRI MAY 26 2017

Note: "fair" indicates few or no clouds below 12,000 feet with no
significant weather and/or obstructions to visibility.

WVZ003-261300-
Northern Panhandle of West Virginia

CITY           SKY/WX    TMP DP  RH WIND       PRES   REMARKS
WHEELING       CLOUDY    58  54  86 W12G21    29.78R
$$

WVZ009-261300-
Northwest West Virginia

CITY           SKY/WX    TMP DP  RH WIND       PRES   REMARKS
PARKERSBURG    CLOUDY    60  54  80 W8G18     29.87R
$$

WVZ006-261300-
Western West Virginia

CITY           SKY/WX    TMP DP  RH WIND       PRES   REMARKS
HUNTINGTON     MOSUNNY   57  53  86 SW5       29.91R
$$

WVZ015-261300-
West Central West Virginia

CITY           SKY/WX    TMP DP  RH WIND       PRES   REMARKS
CHARLESTON     MOSUNNY   59  53  80 SW10      29.91R
$$

WVZ022-031-261300-
North Central West Virginia

CITY           SKY/WX    TMP DP  RH WIND       PRES   REMARKS
CLARKSBURG     CLOUDY    58  55  90 W10       29.82R
MORGANTOWN     CLOUDY    58  55  90 SW5       29.81R FOG
$$

WVZ025-035-042-045-261300-
Southern West Virginia

CITY           SKY/WX    TMP DP  RH WIND       PRES   REMARKS
BECKLEY        CLOUDY    54  50  86 W9        29.94R
LOGAN          CLOUDY    57  55  94 CALM      29.94R
BLUEFIELD      CLOUDY    54  50  86 W10G25    29.95R
LEWISBURG      CLOUDY    56  49  78 W9        29.90R
$$

WVZ047-261300-
Northern Mountains of West Virginia

CITY           SKY/WX    TMP DP  RH WIND       PRES   REMARKS
ELKINS         LGT RAIN  56  51  84 W13       29.85R
$$

WVZ052-261300-
Eastern Panhandle of West Virginia

CITY           SKY/WX    TMP DP  RH WIND       PRES   REMARKS
MARTINSBURG    CLOUDY    63  55  75 SW6       29.70R
PETERSBURG     PTSUNNY   60  58  94 CALM      29.77R
$$



USA.gov is the U.S. government's official web portal to all federal, state and local government web resources and services.